Вернуться в каталог

COSMOS 2199

АктивенВоенныеPO
NORAD 22036·PAYLOAD·🇷🇺 Russia

Запущен Jul 13, 1992 с Plesetsk Cosmodrome

Loading…

Ближайшие Пролёты (ближайшие 24 часа)

TLE

СвежийSource: Space-Track

Эпоха: Sep 14, 2026, 08:54 UTC

1 22036U 92042C   26257.37091314  .00000007  00000-0 -18361-4 0  9991
2 22036  82.5977 223.9645 0012407 127.8904  25.2199 12.61053929572470

Отслеживайте COSMOS 2199 в реальном времени с AllMySat

Download on the App Store